DECAYED

FENGYUN 1C DEB, 30752 (Decayed)

Orbit data source: Space-Track

FENGYUN 1C DEB, 30752 was space debris in SSO originally from a launch on Mon, 10 May 1999 UTC launched from the Taiyaun Space Center, China (TSC). Fengyun 1C debris stems from the Chinese weather satellite Fengyun-1C, which was intentionally destroyed by a Chinese anti-satellite missile in 2007. This event dramatically increased the amount of space debris, with thousands of trackable fragments posing hazards to satellites and human spaceflight. The Fengyun 1C debris cloud has become a focal point in discussions about space sustainability and the need for international regulations to prevent the creation of new debris.

Loading next visibility...
Identifier
30752, 1999-025ATN
Orbit
Decayed
Country
Flag of CNCN / PRC
Related business
Manufacturer
Unknown
Mission
Decayed spacecraft
Bus & Motor
Unknown
Mass
Unknown
Launch date (UTC)
1999-05-10 (26 years ago)
Launch vehicle
Unknown
Launch site
Taiyaun Space Center, China (TSC)
Object type
Payload
Rocket body
Debris
Shape & HBR
Unknown
Radar Cross Section
Small (<0.1 m²)

Expand to show TLE details & history
Last TLE update: 10 months ago

TLE from 10 months ago
0 FENGYUN 1C DEB
1 30752U 99025ATN 24320.13575689  .08434282  11748+0  38143-1 0  9998
2 30752  98.8302 174.6965 0009252  59.3818 300.8361 15.89786375924688
Epoch: 2024-11-15T03:15Z
TLE epoch observation values (Epoch: 2024-11-15T03:15:29.395Z)
Latitude
-0.00005°
Longitude
71.11608°
Altitude
302.855 km
Speed
7.728 km/s
True Right ascension
11h 38m 47s
True Declination
0° 00' 00"
Sunlit
Object was in daylight at epoch
Visualization orbit readout
Latitude
Unknown
Longitude
Unknown
Altitude
Unknown
Speed
Unknown
Apparent Right ascension
Unknown
Apparent Declination
Unknown
Sunlit
N/A
Visualization observer readout
Local Sidereal Time
23:31:42
Azimuth
Unknown
Elevation
Unknown
Doppler factor
Unknown
Orbital elements
Apogee altitude
306.002 km
Perigee altitude
293.645 km
Semi-major axis
6,677.96 km
Eccentricity
0.00093
Inclination
98.8302°
RAAN
174.6965°
Arg. of periapsis
59.3818°
True anomaly
300.74501°
Mean anomaly
300.8361°
Eccentric anomaly
300.79056°
Mean motion
3.9772 °/min
Orbital period
90.52 mins
BSTAR
0.038143
Loading maneuver chart data...
Computing Atmospheric mass density...
Loading historical data...
Loading historical data...
Loading historical data...
Loading historical data...
Loading historical data...
Loading historical data...
Loading historical data...

Documentation

Showing up to 5 results
|